Time,TemperatureF,DewpointF,PressureIn,WindDirection,WindDirectionDegrees,WindSpeedMPH,WindSpeedGustMPH,Humidity,HourlyPrecipIn,Conditions,Clouds,dailyrainin,SoftwareType,DateUTC
2013-03-28 00:03:00,37.0,34.0,29.82,NNW,335,3.0,10.0,89,0.00,,,0.14,,2013-03-28 04:03:00,
2013-03-28 00:12:00,37.0,34.0,29.82,NNW,335,3.0,10.0,89,0.00,,,0.14,,2013-03-28 04:12:00,
2013-03-28 00:23:00,37.0,34.0,29.82,NE,46,2.0,8.0,89,0.00,,,0.14,,2013-03-28 04:23:00,
2013-03-28 00:32:00,37.0,34.0,29.82,ESE,108,3.0,8.0,88,0.00,,,0.14,,2013-03-28 04:32:00,
2013-03-28 00:42:00,37.0,34.0,29.82,ESE,108,3.0,8.0,88,0.00,,,0.14,,2013-03-28 04:42:00,
2013-03-28 00:52:00,37.0,34.0,29.82,West,275,2.0,8.0,88,0.00,,,0.14,,2013-03-28 04:52:00,
2013-03-28 01:02:00,37.0,34.0,29.82,NNE,20,2.0,6.0,88,0.00,,,0.14,,2013-03-28 05:02:00,
2013-03-28 01:12:00,37.0,34.0,29.82,NNE,20,2.0,6.0,88,0.00,,,0.14,,2013-03-28 05:12:00,
2013-03-28 01:22:00,37.0,34.0,29.82,ENE,69,2.0,10.0,87,0.00,,,0.14,,2013-03-28 05:22:00,
2013-03-28 01:32:00,37.0,34.0,29.82,North,11,3.0,6.0,87,0.00,,,0.14,,2013-03-28 05:32:00,
2013-03-28 01:42:00,37.0,34.0,29.82,North,11,3.0,6.0,87,0.00,,,0.14,,2013-03-28 05:42:00,
2013-03-28 01:52:00,36.0,33.0,29.82,NE,43,3.0,11.0,87,0.00,,,0.14,,2013-03-28 05:52:00,
2013-03-28 02:02:00,37.0,34.0,29.82,NNE,29,2.0,7.0,87,0.00,,,0.14,,2013-03-28 06:02:00,
2013-03-28 02:12:00,37.0,34.0,29.82,NNE,29,2.0,7.0,87,0.00,,,0.14,,2013-03-28 06:12:00,
2013-03-28 02:22:00,37.0,33.0,29.82,NNE,23,3.0,7.0,86,0.00,,,0.14,,2013-03-28 06:22:00,
2013-03-28 02:32:00,37.0,33.0,29.82,NE,42,4.0,9.0,85,0.00,,,0.14,,2013-03-28 06:32:00,
2013-03-28 02:42:00,37.0,33.0,29.82,NE,42,4.0,9.0,85,0.00,,,0.14,,2013-03-28 06:42:00,
2013-03-28 02:52:00,37.0,33.0,29.83,NE,49,3.0,9.0,84,0.00,,,0.14,,2013-03-28 06:52:00,
2013-03-28 03:02:00,37.0,32.0,29.83,NNE,29,3.0,7.0,83,0.00,,,0.14,,2013-03-28 07:02:00,
2013-03-28 03:13:00,37.0,32.0,29.83,NNE,29,3.0,7.0,83,0.00,,,0.14,,2013-03-28 07:13:00,
2013-03-28 03:22:00,37.0,32.0,29.83,NW,321,2.0,8.0,83,0.00,,,0.14,,2013-03-28 07:22:00,
2013-03-28 03:32:00,37.0,33.0,29.83,NNW,335,3.0,8.0,84,0.00,,,0.14,,2013-03-28 07:32:00,
2013-03-28 03:42:00,37.0,33.0,29.83,NNW,335,3.0,8.0,84,0.00,,,0.14,,2013-03-28 07:42:00,
2013-03-28 03:52:00,37.0,33.0,29.83,NW,312,3.0,7.0,84,0.00,,,0.14,,2013-03-28 07:52:00,
2013-03-28 04:02:00,36.0,32.0,29.83,WNW,284,2.0,5.0,84,0.00,,,0.14,,2013-03-28 08:02:00,
2013-03-28 04:12:00,36.0,32.0,29.83,WNW,284,2.0,5.0,84,0.00,,,0.14,,2013-03-28 08:12:00,
2013-03-28 04:22:00,36.0,32.0,29.83,NNE,24,3.0,6.0,86,0.00,,,0.14,,2013-03-28 08:22:00,
2013-03-28 04:32:00,36.0,32.0,29.83,WSW,250,1.0,5.0,85,0.00,,,0.14,,2013-03-28 08:32:00,
2013-03-28 04:42:00,36.0,32.0,29.83,WSW,250,1.0,5.0,85,0.00,,,0.14,,2013-03-28 08:42:00,
2013-03-28 04:52:00,35.0,32.0,29.83,NNE,22,0.0,5.0,87,0.00,,,0.14,,2013-03-28 08:52:00,
2013-03-28 05:02:00,34.0,31.0,29.83,West,271,3.0,6.0,88,0.00,,,0.14,,2013-03-28 09:02:00,
2013-03-28 05:12:00,34.0,31.0,29.83,West,271,3.0,6.0,88,0.00,,,0.14,,2013-03-28 09:12:00,
2013-03-28 05:22:00,35.0,32.0,29.83,WNW,295,3.0,8.0,88,0.00,,,0.14,,2013-03-28 09:22:00,
2013-03-28 05:32:00,35.0,32.0,29.84,West,278,2.0,7.0,87,0.00,,,0.14,,2013-03-28 09:32:00,
2013-03-28 05:42:00,35.0,32.0,29.84,West,278,2.0,7.0,87,0.00,,,0.14,,2013-03-28 09:42:00,
2013-03-28 05:52:00,34.0,31.0,29.84,West,275,3.0,5.0,87,0.00,,,0.14,,2013-03-28 09:52:00,
2013-03-28 06:03:00,34.0,31.0,29.85,West,275,2.0,5.0,89,0.00,,,0.14,,2013-03-28 10:03:00,
2013-03-28 06:12:00,34.0,31.0,29.85,West,275,2.0,5.0,89,0.00,,,0.14,,2013-03-28 10:12:00,
2013-03-28 06:22:00,34.0,31.0,29.85,West,263,3.0,5.0,89,0.00,,,0.14,,2013-03-28 10:22:00,
2013-03-28 06:33:00,34.0,31.0,29.85,West,275,3.0,5.0,89,0.00,,,0.14,,2013-03-28 10:33:00,
2013-03-28 06:43:00,34.0,31.0,29.85,West,275,3.0,5.0,89,0.00,,,0.14,,2013-03-28 10:43:00,
2013-03-28 06:53:00,34.0,31.0,29.85,WSW,238,3.0,5.0,89,0.00,,,0.14,,2013-03-28 10:53:00,
2013-03-28 07:02:00,35.0,32.0,29.85,WNW,289,3.0,6.0,89,0.00,,,0.14,,2013-03-28 11:02:00,
2013-03-28 07:12:00,35.0,32.0,29.85,WNW,289,3.0,6.0,89,0.00,,,0.14,,2013-03-28 11:12:00,
2013-03-28 07:23:00,35.0,32.0,29.86,WNW,296,1.0,7.0,89,0.00,,,0.14,,2013-03-28 11:23:00,
2013-03-28 07:32:00,35.0,32.0,29.86,WSW,254,2.0,4.0,88,0.00,,,0.14,,2013-03-28 11:32:00,
2013-03-28 07:42:00,35.0,32.0,29.86,WSW,254,2.0,4.0,88,0.00,,,0.14,,2013-03-28 11:42:00,
2013-03-28 07:52:00,35.0,32.0,29.87,West,261,2.0,6.0,88,0.00,,,0.14,,2013-03-28 11:52:00,
2013-03-28 08:02:00,36.0,33.0,29.87,West,267,2.0,7.0,87,0.00,,,0.14,,2013-03-28 12:02:00,
2013-03-28 08:12:00,36.0,33.0,29.87,West,267,2.0,7.0,87,0.00,,,0.14,,2013-03-28 12:12:00,
2013-03-28 08:22:00,37.0,33.0,29.87,WSW,240,4.0,6.0,85,0.00,,,0.14,,2013-03-28 12:22:00,
2013-03-28 08:32:00,37.0,33.0,29.88,West,265,2.0,6.0,84,0.00,,,0.14,,2013-03-28 12:32:00,
2013-03-28 08:42:00,37.0,33.0,29.88,West,265,2.0,6.0,84,0.00,,,0.14,,2013-03-28 12:42:00,
2013-03-28 08:52:00,38.0,34.0,29.88,WNW,291,2.0,5.0,84,0.00,,,0.14,,2013-03-28 12:52:00,
2013-03-28 09:02:00,38.0,33.0,29.88,West,267,2.0,5.0,83,0.00,,,0.14,,2013-03-28 13:02:00,
2013-03-28 09:12:00,38.0,33.0,29.88,West,267,2.0,5.0,83,0.00,,,0.14,,2013-03-28 13:12:00,
2013-03-28 09:22:00,39.0,34.0,29.88,WNW,294,2.0,4.0,83,0.00,,,0.13,,2013-03-28 13:22:00,
2013-03-28 09:32:00,39.0,34.0,29.88,WNW,282,3.0,6.0,82,0.00,,,0.13,,2013-03-28 13:32:00,
2013-03-28 09:42:00,39.0,34.0,29.88,WNW,282,3.0,6.0,82,0.00,,,0.13,,2013-03-28 13:42:00,
2013-03-28 09:52:00,40.0,35.0,29.88,WNW,293,2.0,7.0,81,0.00,,,0.13,,2013-03-28 13:52:00,
2013-03-28 10:02:00,41.0,35.0,29.88,NNE,12,1.0,6.0,79,0.00,,,0.13,,2013-03-28 14:02:00,
2013-03-28 10:12:00,41.0,35.0,29.88,NNE,12,1.0,6.0,79,0.00,,,0.13,,2013-03-28 14:12:00,
2013-03-28 10:23:00,42.0,35.0,29.88,WSW,250,2.0,4.0,75,0.00,,,0.12,,2013-03-28 14:23:00,
2013-03-28 10:33:00,43.0,35.0,29.88,NNW,339,2.0,6.0,74,0.00,,,0.12,,2013-03-28 14:33:00,
2013-03-28 10:42:00,43.0,35.0,29.88,NNW,339,2.0,6.0,74,0.00,,,0.12,,2013-03-28 14:42:00,
2013-03-28 10:52:00,44.0,36.0,29.88,NE,40,6.0,11.0,72,0.00,,,0.12,,2013-03-28 14:52:00,
2013-03-28 11:02:00,44.0,36.0,29.89,North,5,3.0,10.0,72,0.00,,,0.12,,2013-03-28 15:02:00,
2013-03-28 11:12:00,44.0,36.0,29.89,North,5,3.0,10.0,72,0.00,,,0.12,,2013-03-28 15:12:00,
2013-03-28 11:22:00,44.0,35.0,29.89,NE,44,5.0,10.0,71,0.00,,,0.11,,2013-03-28 15:22:00,
2013-03-28 11:33:00,45.0,35.0,29.88,NE,44,4.0,10.0,68,0.00,,,0.11,,2013-03-28 15:33:00,
2013-03-28 11:43:00,45.0,35.0,29.88,NE,44,4.0,10.0,68,0.00,,,0.11,,2013-03-28 15:43:00,
2013-03-28 11:53:00,46.0,35.0,29.88,ENE,69,4.0,10.0,66,0.00,,,0.11,,2013-03-28 15:53:00,
2013-03-28 12:03:00,45.0,33.0,29.88,East,84,6.0,10.0,62,0.01,,,0.12,,2013-03-28 16:03:00,
2013-03-28 12:12:00,45.0,33.0,29.88,East,84,6.0,10.0,62,0.01,,,0.12,,2013-03-28 16:12:00,
2013-03-28 12:23:00,46.0,33.0,29.88,East,90,3.0,12.0,61,0.01,,,0.12,,2013-03-28 16:23:00,
2013-03-28 12:32:00,47.0,33.0,29.87,WSW,257,3.0,11.0,58,0.01,,,0.12,,2013-03-28 16:32:00,
2013-03-28 12:42:00,47.0,33.0,29.87,WSW,257,3.0,11.0,58,0.01,,,0.12,,2013-03-28 16:42:00,
2013-03-28 12:52:00,47.0,35.0,29.87,ENE,64,2.0,10.0,62,0.01,,,0.12,,2013-03-28 16:52:00,
2013-03-28 13:02:00,46.0,34.0,29.87,NNE,30,4.0,8.0,62,0.00,,,0.12,,2013-03-28 17:02:00,
2013-03-28 13:12:00,46.0,34.0,29.87,NNE,30,4.0,8.0,62,0.00,,,0.12,,2013-03-28 17:12:00,
2013-03-28 13:22:00,46.0,34.0,29.87,NNW,340,2.0,6.0,63,0.00,,,0.11,,2013-03-28 17:22:00,
2013-03-28 13:32:00,47.0,35.0,29.87,East,98,3.0,9.0,64,0.00,,,0.11,,2013-03-28 17:32:00,
2013-03-28 13:42:00,47.0,35.0,29.87,East,98,3.0,9.0,64,0.00,,,0.11,,2013-03-28 17:42:00,
2013-03-28 13:52:00,47.0,34.0,29.87,ESE,119,4.0,11.0,61,0.00,,,0.11,,2013-03-28 17:52:00,
2013-03-28 14:02:00,47.0,34.0,29.87,East,87,5.0,13.0,61,0.00,,,0.11,,2013-03-28 18:02:00,
2013-03-28 14:12:00,47.0,34.0,29.87,East,87,5.0,13.0,61,0.00,,,0.11,,2013-03-28 18:12:00,
2013-03-28 14:22:00,46.0,32.0,29.87,NNE,26,5.0,8.0,59,0.00,,,0.10,,2013-03-28 18:22:00,
2013-03-28 14:32:00,46.0,35.0,29.87,NW,313,2.0,7.0,65,0.00,,,0.10,,2013-03-28 18:32:00,
2013-03-28 14:42:00,46.0,35.0,29.87,NW,313,2.0,7.0,65,0.00,,,0.10,,2013-03-28 18:42:00,
2013-03-28 14:52:00,45.0,35.0,29.87,WNW,302,5.0,11.0,67,0.00,,,0.10,,2013-03-28 18:52:00,
2013-03-28 15:02:00,45.0,35.0,29.87,NNE,18,2.0,7.0,67,0.00,,,0.10,,2013-03-28 19:02:00,
2013-03-28 15:12:00,45.0,35.0,29.87,NNE,18,2.0,7.0,67,0.00,,,0.10,,2013-03-28 19:12:00,
2013-03-28 15:23:00,48.0,36.0,29.86,NW,309,3.0,8.0,64,0.00,,,0.07,,2013-03-28 19:23:00,
2013-03-28 15:33:00,47.0,35.0,29.86,NW,311,3.0,6.0,63,0.00,,,0.07,,2013-03-28 19:33:00,
2013-03-28 15:42:00,47.0,35.0,29.86,NW,311,3.0,6.0,63,0.00,,,0.07,,2013-03-28 19:42:00,
2013-03-28 15:52:00,48.0,33.0,29.86,NE,47,3.0,9.0,56,0.00,,,0.07,,2013-03-28 19:52:00,
2013-03-28 16:03:00,48.0,34.0,29.86,East,86,4.0,7.0,58,0.00,,,0.07,,2013-03-28 20:03:00,
2013-03-28 16:12:00,48.0,34.0,29.86,East,86,4.0,7.0,58,0.00,,,0.07,,2013-03-28 20:12:00,
2013-03-28 16:22:00,49.0,33.0,29.85,NE,39,3.0,7.0,54,0.00,,,0.05,,2013-03-28 20:22:00,
2013-03-28 16:32:00,47.0,33.0,29.86,NE,56,2.0,5.0,58,0.00,,,0.05,,2013-03-28 20:32:00,
2013-03-28 16:42:00,47.0,33.0,29.86,NE,56,2.0,5.0,58,0.00,,,0.05,,2013-03-28 20:42:00,
2013-03-28 16:53:00,47.0,35.0,29.86,NE,40,0.0,2.0,64,0.00,,,0.05,,2013-03-28 20:53:00,
2013-03-28 17:02:00,46.0,35.0,29.86,WNW,294,2.0,4.0,64,0.00,,,0.05,,2013-03-28 21:02:00,
2013-03-28 17:12:00,46.0,35.0,29.86,WNW,294,2.0,4.0,64,0.00,,,0.05,,2013-03-28 21:12:00,
2013-03-28 17:22:00,48.0,34.0,29.86,WSW,254,0.0,6.0,58,0.00,,,0.04,,2013-03-28 21:22:00,
2013-03-28 17:33:00,48.0,34.0,29.86,West,272,1.0,6.0,58,0.00,,,0.04,,2013-03-28 21:33:00,
2013-03-28 17:43:00,48.0,34.0,29.86,West,272,1.0,6.0,58,0.00,,,0.04,,2013-03-28 21:43:00,
2013-03-28 17:53:00,47.0,35.0,29.86,West,280,1.0,5.0,64,0.00,,,0.04,,2013-03-28 21:53:00,
2013-03-28 18:03:00,47.0,35.0,29.86,West,266,2.0,4.0,64,0.00,,,0.04,,2013-03-28 22:03:00,
2013-03-28 18:13:00,47.0,35.0,29.86,West,266,2.0,4.0,64,0.00,,,0.04,,2013-03-28 22:13:00,
2013-03-28 18:23:00,46.0,35.0,29.87,West,273,2.0,5.0,65,0.00,,,0.02,,2013-03-28 22:23:00,
2013-03-28 18:32:00,45.0,35.0,29.87,WNW,288,3.0,5.0,67,0.00,,,0.02,,2013-03-28 22:32:00,
2013-03-28 18:42:00,45.0,35.0,29.87,WNW,288,3.0,5.0,67,0.00,,,0.02,,2013-03-28 22:42:00,
2013-03-28 18:53:00,44.0,34.0,29.88,West,281,3.0,6.0,69,0.00,,,0.02,,2013-03-28 22:53:00,
2013-03-28 19:03:00,42.0,35.0,29.88,West,275,0.0,4.0,76,0.00,,,0.02,,2013-03-28 23:03:00,
2013-03-28 19:12:00,42.0,35.0,29.88,West,275,0.0,4.0,76,0.00,,,0.02,,2013-03-28 23:12:00,
2013-03-28 19:22:00,42.0,35.0,29.89,West,275,0.0,1.0,75,0.00,,,0.02,,2013-03-28 23:22:00,
2013-03-28 19:32:00,41.0,34.0,29.89,West,275,1.0,1.0,76,0.00,,,0.02,,2013-03-28 23:32:00,
2013-03-28 19:42:00,41.0,34.0,29.89,West,275,1.0,1.0,76,0.00,,,0.02,,2013-03-28 23:42:00,
2013-03-28 19:53:00,39.0,33.0,29.90,West,275,0.0,0.0,79,0.00,,,0.02,,2013-03-28 23:53:00,
2013-03-28 20:02:00,38.0,34.0,29.90,West,275,0.0,1.0,84,0.00,,,0.02,,2013-03-29 00:02:00,
2013-03-28 20:12:00,38.0,34.0,29.90,West,275,0.0,1.0,84,0.00,,,0.02,,2013-03-29 00:12:00,
2013-03-28 20:22:00,36.0,32.0,29.91,West,275,0.0,0.0,85,0.00,,,0.02,,2013-03-29 00:22:00,
2013-03-28 20:32:00,36.0,33.0,29.91,West,275,0.0,0.0,87,0.00,,,0.02,,2013-03-29 00:32:00,
2013-03-28 20:42:00,36.0,33.0,29.91,West,275,0.0,0.0,87,0.00,,,0.02,,2013-03-29 00:42:00,
2013-03-28 20:52:00,34.0,31.0,29.91,West,275,0.0,0.0,87,0.00,,,0.02,,2013-03-29 00:52:00,
2013-03-28 21:02:00,34.0,31.0,29.90,West,275,0.0,0.0,89,0.00,,,0.02,,2013-03-29 01:02:00,
2013-03-28 21:12:00,34.0,31.0,29.90,West,275,0.0,0.0,89,0.00,,,0.02,,2013-03-29 01:12:00,
2013-03-28 21:22:00,34.0,31.0,29.91,West,275,0.0,0.0,90,0.00,,,0.02,,2013-03-29 01:22:00,
2013-03-28 21:33:00,34.0,31.0,29.91,West,275,0.0,0.0,90,0.00,,,0.02,,2013-03-29 01:33:00,
2013-03-28 21:42:00,34.0,31.0,29.91,West,275,0.0,0.0,90,0.00,,,0.02,,2013-03-29 01:42:00,
2013-03-28 21:52:00,33.0,30.0,29.91,West,275,0.0,0.0,89,0.00,,,0.02,,2013-03-29 01:52:00,
2013-03-28 22:02:00,32.0,30.0,29.91,NNW,343,0.0,0.0,91,0.00,,,0.02,,2013-03-29 02:02:00,
2013-03-28 22:12:00,32.0,30.0,29.91,NNW,343,0.0,0.0,91,0.00,,,0.02,,2013-03-29 02:12:00,
2013-03-28 22:22:00,32.0,30.0,29.92,NNE,30,2.0,3.0,91,0.00,,,0.01,,2013-03-29 02:22:00,
2013-03-28 22:32:00,31.0,29.0,29.91,NNE,29,0.0,0.0,91,0.00,,,0.01,,2013-03-29 02:32:00,
2013-03-28 22:42:00,31.0,29.0,29.91,NNE,29,0.0,0.0,91,0.00,,,0.01,,2013-03-29 02:42:00,
2013-03-28 22:53:00,31.0,29.0,29.91,NW,320,0.0,0.0,92,0.00,,,0.01,,2013-03-29 02:53:00,
2013-03-28 23:02:00,31.0,29.0,29.91,WNW,293,3.0,4.0,92,0.00,,,0.01,,2013-03-29 03:02:00,
2013-03-28 23:12:00,31.0,29.0,29.91,WNW,293,3.0,4.0,92,0.00,,,0.01,,2013-03-29 03:12:00,
2013-03-28 23:22:00,31.0,29.0,29.91,NW,310,1.0,3.0,93,0.00,,,0.01,,2013-03-29 03:22:00,
2013-03-28 23:32:00,32.0,30.0,29.91,West,275,3.0,5.0,93,0.00,,,0.01,,2013-03-29 03:32:00,
2013-03-28 23:43:00,32.0,30.0,29.91,West,275,3.0,5.0,93,0.00,,,0.01,,2013-03-29 03:43:00,
2013-03-28 23:53:00,34.0,31.0,29.91,NW,304,2.0,5.0,88,0.00,,,0.01,,2013-03-29 03:53:00,